Location: Igon
(43.1667°N, 0.2333°W)
Time: 02:56:30
(UTC+00:00)

SKYMED 3 - Pass Details

Date: 20 April 2021
Orbit: 621 x 624 km, 97.9° (Epoch: 18 May)

Event Time Altitude Azimuth Distance (km) Brightness Sun altitude
Rises 19:45:37 0° 350° (N) 2,913 8.6 -10.3°
Reaches altitude 10° 19:50:04 10° 307° (NW) 1,998 8.7 -11.0°
Maximum altitude 19:50:32 10° 301° (WNW) 1,987 8.8 -11.1°
Drops below altitude 10° 19:50:58 10° 295° (WNW) 1,996 8.8 -11.1°
Sets 19:55:25 0° 251° (WSW) 2,894 8.7 -11.8°
